GFSFLT2_925_spd_234.txt.gz
Wind_Speed
26 28 31 30 30 29 29 28 27 25 23 21 19 17 17 16 15 14 13 12 12 11 10 8 7 6 4 2 2 3 3 3
26 27 26 26 28 28 28 27 26 24 22 21 19 17 16 15 15 14 13 12 12 11 9 7 5 4 3 2 2 2 3 4
26 26 26 25 23 25 26 25 25 23 22 21 20 15 14 14 13 13 12 11 10 9 8 7 4 2 2 2 2 3 3 3
26 26 26 26 24 23 22 21 21 21 21 21 18 15 14 13 12 13 12 11 10 8 6 5 4 3 2 2 2 4 3 3
27 26 26 26 25 24 23 22 21 21 21 20 17 16 14 14 12 12 11 11 8 7 5 4 4 3 3 3 3 3 3 4
26 27 27 27 24 25 24 23 22 22 22 20 18 16 15 15 13 13 12 11 10 8 7 4 3 3 3 3 5 4 3 3
28 28 27 27 26 24 23 24 23 20 22 25 20 18 17 15 13 13 12 10 10 9 8 5 4 3 3 3 4 6 5 4
28 29 28 27 27 24 23 24 19 21 21 24 23 19 17 16 14 13 12 11 10 10 9 8 6 5 4 5 4 5 6 6
30 30 28 27 26 23 22 20 20 20 21 24 25 20 18 16 15 14 13 12 11 10 10 9 8 7 7 6 6 7 7 8
29 28 29 27 26 23 22 21 21 20 20 20 22 20 18 16 15 14 13 13 12 12 11 10 8 7 7 8 8 8 10 12
30 30 30 29 26 24 21 21 22 19 20 21 23 21 19 16 15 14 15 14 13 12 10 8 7 7 8 8 9 10 11 11
28 30 29 29 25 23 22 22 21 20 21 20 20 20 19 18 16 15 16 15 14 13 11 10 10 9 9 9 11 11 11 12
31 32 31 31 30 29 27 27 24 23 22 20 20 20 20 19 17 16 16 15 14 13 12 12 10 8 9 12 11 9 10 11
33 34 32 33 31 29 25 24 23 22 20 19 20 20 19 20 18 16 16 15 13 12 12 9 6 6 6 3 5 10 13 4
36 37 37 36 31 27 23 20 17 21 22 21 22 20 19 19 17 16 15 14 12 12 12 10 7 4 6 2 2 5 7 10
36 36 37 37 34 31 32 30 26 25 25 23 21 21 19 18 17 16 15 14 14 14 13 12 9 6 5 5 3 6 4 5
36 37 37 36 37 35 33 28 23 21 22 23 24 22 21 21 20 17 15 14 14 12 10 6 6 5 4 4 4 4 7 7
32 35 37 37 37 36 33 31 25 25 26 23 28 24 23 23 20 17 17 13 11 9 8 7 5 4 3 2 3 3 6 7
32 35 35 37 36 36 33 31 29 28 26 27 28 27 20 19 17 16 14 13 13 11 10 8 6 5 3 2 0 2 3 6
30 33 34 35 34 34 32 30 29 27 28 26 24 22 18 19 18 17 16 15 13 11 9 7 6 6 5 4 3 2 1 2

GFSFLT2_925_spd_237.txt.gz
Wind_Speed
26 26 29 27 27 27 28 28 26 25 23 20 18 16 16 15 14 12 11 11 10 9 8 7 6 5 3 3 2 1 1 1
25 25 24 26 27 27 28 27 26 24 22 20 18 16 15 15 14 13 12 11 10 9 8 7 6 5 4 3 2 2 3 2
27 27 25 23 21 26 27 26 25 23 21 20 18 13 15 14 13 13 12 11 10 9 8 7 6 4 3 2 2 5 2 3
29 28 27 25 24 23 22 23 21 20 19 19 16 14 13 12 13 13 12 11 10 8 7 6 5 8 3 2 4 2 3 2
30 29 28 27 25 23 24 22 22 20 19 18 16 15 14 14 12 12 11 12 8 8 8 8 9 4 4 4 3 3 3 3
30 30 29 28 26 25 25 25 24 23 22 21 20 18 16 16 14 14 13 13 13 11 14 6 5 7 6 5 5 5 4 4
30 31 30 30 27 26 26 26 25 24 23 24 22 20 18 17 16 15 15 15 13 12 8 8 9 7 6 6 5 6 4 4
30 32 30 30 29 25 25 24 23 21 22 25 26 20 18 18 17 16 15 14 13 12 12 12 10 10 8 7 5 5 6 5
31 32 32 31 30 26 25 25 19 24 21 21 24 21 18 18 17 17 16 14 12 11 11 11 9 9 8 8 7 7 6 6
30 32 33 32 30 28 25 22 22 21 21 26 27 22 19 19 18 17 16 14 14 13 14 13 9 10 10 9 9 7 9 9
29 30 32 32 29 27 25 22 23 21 22 22 23 24 22 21 19 18 16 16 16 14 15 13 12 12 11 13 8 9 9 10
29 29 30 31 28 26 25 24 23 23 23 23 25 26 25 23 20 18 18 17 15 15 12 12 12 10 9 6 8 8 9 11
31 32 31 31 32 32 29 28 26 25 24 23 24 26 26 25 21 20 18 18 18 18 14 14 10 7 8 13 12 13 13 10
32 34 34 35 32 31 28 27 26 25 24 24 25 26 26 25 23 21 20 18 17 14 13 12 9 9 8 6 6 5 13 8
35 38 37 37 34 30 27 25 23 24 25 25 27 27 26 26 24 21 20 18 14 14 13 12 10 3 5 5 3 4 6 6
36 36 38 38 37 33 32 31 28 30 28 28 27 28 27 25 23 22 18 16 14 13 12 9 9 7 4 4 3 5 3 4
35 37 38 37 38 34 35 30 28 27 26 27 27 27 26 24 23 19 17 17 17 16 13 12 10 8 8 7 4 5 5 6
35 37 38 39 39 40 35 35 29 27 27 27 27 25 26 27 25 23 19 17 15 13 12 10 8 8 7 7 7 6 6 6
36 38 37 40 41 41 35 35 31 30 31 28 28 30 32 29 25 23 20 18 18 14 12 11 10 8 6 5 4 3 2 3
31 34 37 38 40 40 39 35 32 28 30 31 30 30 32 33 28 25 22 18 15 14 13 10 9 8 7 5 5 4 2 1

GFSFLT2_925_spd_243.txt.gz
Wind_Speed
29 28 27 28 30 30 27 26 26 25 23 20 19 17 15 14 13 12 10 10 9 8 6 5 4 3 3 3 3 4 6 8
31 30 29 30 31 28 27 26 26 25 23 21 19 17 16 15 13 12 10 10 9 8 6 5 3 3 2 3 3 5 1 6
32 31 30 31 31 28 26 26 26 25 23 21 19 18 16 15 13 12 11 9 8 8 6 5 4 3 3 2 2 1 5 2
34 32 32 31 31 30 29 28 28 26 25 22 20 18 16 15 13 11 10 10 9 8 7 5 5 5 3 3 1 1 4 8
33 33 32 32 32 32 31 31 29 27 25 23 20 16 15 16 14 14 12 12 11 10 9 8 6 4 3 3 0 4 3 6
33 32 32 31 31 34 34 34 32 29 27 24 23 19 18 18 17 14 13 13 12 11 10 8 8 5 3 2 2 9 4 7
36 34 34 32 30 35 35 35 33 30 28 26 25 23 22 22 19 15 15 15 15 14 11 9 10 7 8 6 4 3 3 2
39 39 37 37 32 35 36 34 32 31 29 27 28 26 25 24 22 19 14 14 15 14 14 16 14 12 10 6 6 3 1 2
42 42 41 41 31 35 35 34 33 31 30 29 27 29 23 28 25 21 16 16 16 17 15 19 17 12 10 11 10 8 7 6
41 40 43 41 39 36 37 37 34 34 34 33 30 30 27 31 25 21 21 17 19 19 15 14 13 11 12 13 13 12 10 11
41 41 45 45 43 34 38 38 37 37 37 37 34 32 30 27 27 25 22 21 15 17 14 14 13 14 14 14 15 13 13 11
47 43 45 44 40 37 35 37 38 35 38 33 38 37 34 26 27 27 23 24 15 18 18 17 17 18 13 13 17 14 13 14
46 43 46 44 39 38 33 38 33 38 41 38 33 40 39 32 29 28 24 27 21 19 18 19 16 10 8 6 5 11 15 13
45 47 45 47 42 40 32 30 32 36 37 36 38 38 39 41 31 32 28 27 27 23 21 18 16 15 5 1 1 3 10 15
46 47 47 46 43 36 32 26 29 27 32 37 39 37 37 47 40 33 31 29 29 27 23 23 14 9 12 6 1 3 2 3
47 48 47 46 43 38 39 37 32 37 37 32 39 40 38 38 44 38 32 31 30 29 26 25 20 15 11 12 5 4 2 2
46 47 47 45 47 45 43 36 37 29 30 33 38 39 42 40 43 41 37 32 32 29 26 25 23 22 19 12 9 8 5 3
42 44 44 44 46 44 44 44 34 30 33 35 39 41 43 44 44 41 42 32 36 33 28 26 25 23 21 15 14 7 7 5
42 44 43 45 47 46 45 46 40 37 36 37 35 36 38 47 45 43 40 40 35 34 29 27 25 20 18 15 14 13 14 12
42 46 45 48 49 48 47 45 43 37 38 36 37 40 40 43 45 43 41 39 35 31 28 22 20 20 20 21 18 15 13 12

GFSFLT2_925_spd_246.txt.gz
Wind_Speed
39 36 34 33 33 31 29 28 27 25 23 22 20 20 19 17 16 15 14 14 13 11 9 7 6 6 6 5 5 5 8 6
36 37 35 35 33 31 29 28 26 25 23 21 20 19 19 17 16 14 14 13 12 10 8 7 6 6 5 4 5 4 4 3
33 31 36 36 35 32 30 28 27 25 23 22 21 20 19 18 16 15 13 12 11 10 8 7 5 5 5 5 4 3 4 2
35 33 31 33 36 34 32 30 29 28 26 24 22 21 19 17 16 14 13 12 11 9 8 7 6 5 4 5 2 3 4 3
35 37 35 34 33 35 34 33 32 30 28 26 23 21 19 18 17 16 15 13 11 11 9 8 8 5 2 2 2 2 4 4
38 38 38 37 36 37 37 36 35 33 30 27 25 23 21 20 18 16 14 13 12 11 10 8 8 7 5 3 1 2 2 4
40 38 39 40 39 38 38 37 37 35 32 29 27 24 23 21 19 16 15 13 12 12 11 11 11 8 6 4 4 2 2 3
40 40 38 39 39 39 40 39 37 36 33 32 29 26 24 23 21 18 15 15 14 15 14 13 11 10 8 6 6 3 2 4
41 42 40 39 38 40 41 41 40 38 36 34 32 30 28 25 24 22 17 15 16 15 17 14 13 13 11 11 6 6 6 5
44 44 45 43 40 39 40 41 41 40 37 36 34 34 31 30 28 25 21 19 18 18 18 17 17 15 12 12 12 11 10 9
42 44 48 46 44 41 39 39 40 40 39 38 36 36 36 31 34 28 23 23 21 21 23 19 19 18 14 13 15 15 14 14
45 45 46 44 39 39 37 36 39 39 41 41 37 37 37 36 33 31 27 26 21 22 23 20 16 16 15 11 13 15 14 14
41 40 42 40 36 38 34 36 37 38 41 42 39 38 37 41 32 36 32 29 27 23 22 19 16 15 12 7 7 9 15 14
42 43 43 48 42 39 34 32 32 34 35 40 41 40 39 40 34 37 35 32 29 26 24 20 16 15 7 4 1 5 11 10
45 45 46 48 44 35 30 28 24 30 36 40 45 45 44 44 40 38 35 33 33 31 27 24 19 18 14 6 2 4 3 8
47 48 47 46 43 39 40 39 30 37 33 34 42 44 45 46 45 41 39 36 35 34 30 28 25 19 15 13 6 4 3 3
45 48 46 46 46 46 45 39 40 32 30 31 38 44 45 46 47 45 42 40 39 35 33 30 28 24 21 13 12 8 6 4
44 46 46 46 47 46 46 46 37 33 33 36 38 39 46 45 44 47 49 43 41 39 36 33 31 29 27 24 20 10 8 7
40 42 43 46 47 47 46 46 42 43 39 39 31 33 39 47 46 46 44 50 44 40 36 34 33 30 28 27 24 22 15 15
41 43 44 46 47 48 47 47 42 41 40 38 40 39 40 39 47 45 44 47 46 40 37 36 34 31 29 29 25 22 20 24